Regional Weather Roundup
Issued by NWS

Home | Current Version | Previous Version | Graphics & Text | Print | Product List | Glossary On
Versions: 1 2 3 4 5 6 7 8 9 10 11 12 13 14 15 16 17 18 19 20 21 22 23 24 25 26 27 28 29 30 31 32 33 34 35 36 37 38 39 40 41 42 43 44 45 46 47 48 49 50
000
ASUS43 KOAX 261110
RWRNE

WEATHER ROUNDUP FOR NEBRASKA
NATIONAL WEATHER SERVICE OMAHA NE
600 AM CDT FRI MAY 26 2017

NOTES: SATELLITE DATA IS BEING USED TO AUGMENT CLOUD COVER ABOVE
       12000 FEET.
       "FAIR" INDICATES FEW OR NO CLOUDS BELOW 12,000 FEET WITH NO
       SIGNIFICANT WEATHER AND/OR OBSTRUCTIONS TO VISIBILITY.

  * THESE STATIONS DO NOT REPORT WEATHER SUCH AS RAIN...SNOW OR FOG.

NEZ001>004-019>022-054>056-261200-
NEBRASKA PANHANDLE

CITY           SKY/WX    TMP DP  RH WIND       PRES   REMARKS
SCOTTSBLUFF    CLEAR     40  35  83 W7        29.94R
ALLIANCE       CLEAR     35  34  96 W3        29.90S
CHADRON        CLOUDY    45  38  76 W10       29.91R
GORDON         FAIR      39  37  90 W5        29.89S
KIMBALL        CLEAR     40  35  80 N3        29.96R
SIDNEY         CLOUDY    44  41  89 NW8       29.94R
$$

NEZ057>060-069>072-079>082-261200-
SOUTHWEST NEBRASKA

CITY           SKY/WX    TMP DP  RH WIND       PRES   REMARKS
NORTH PLATTE   CLOUDY    52  45  77 N8        29.86R
IMPERIAL       CLOUDY    53  46  77 N14       29.89R
LEXINGTON      CLEAR     56  46  68 N15       29.80R
MCCOOK         PTCLDY    56  53  90 NW8       29.82R
OGALLALA       CLOUDY    52  43  70 CALM      29.90R
$$

NEZ005>010-023>029-035>040-094-261200-
NORTH CENTRAL NEBRASKA

CITY           SKY/WX    TMP DP  RH WIND       PRES   REMARKS
VALENTINE      PTCLDY    48  39  71 NW10      29.85R
AINSWORTH      CLOUDY    50  42  76 NW10      29.85R
BROKEN BOW     CLOUDY    54  44  69 N18       29.83R
O`NEILL        PTCLDY    54  43  67 NW12      29.81R
ORD            PTCLDY    55  42  61 NW14      29.79R
THEDFORD       CLOUDY    50  43  77 NW6       29.88R
$$

NEZ041-046>049-061>064-073>077-083>087-261200-
SOUTH CENTRAL NEBRASKA

CITY           SKY/WX    TMP DP  RH WIND       PRES   REMARKS
GRAND ISLAND   MOCLDY    59  54  83 N20       29.76R
AURORA         MOCLDY    60  55  83 NW16      29.74R
HASTINGS       CLEAR     60  53  77 N15       29.74R
HEBRON         PTCLDY    60  59  96 CALM      29.69R
HOLDREGE       CLEAR     58  49  71 N14G22    29.79R
KEARNEY *      MOCLDY    59  46  63 N21       29.78R
YORK           MOCLDY    59  57  94 NW9       29.71R
$$

NEZ011>018-030>034-042>045-261200-
NORTHEAST NEBRASKA

CITY           SKY/WX    TMP DP  RH WIND       PRES   REMARKS
NORFOLK        CLOUDY    58  47  66 NW16      29.73R
ALBION         CLOUDY    58  46  63 N12G18    29.76R
BLAIR          CLOUDY    63  56  79 CALM      29.68R
FREMONT        CLOUDY    62  57  83 CALM      29.68R
TEKAMAH        MOCLDY    60  57  89 W6        29.68R
WAYNE          CLOUDY    58  56  92 NW15      29.70R
$$

NEZ050>053-065>068-078-088>093-261200-
SOUTHEAST NEBRASKA

CITY           SKY/WX    TMP DP  RH WIND       PRES   REMARKS
LINCOLN        CLOUDY    62  58  86 E3        29.67S
OMAHA EPPLEY   CLOUDY    64  55  72 CALM      29.67R
BEATRICE       PTCLDY    59  58  97 E6        29.67S
FALLS CITY     PTCLDY    58  56  93 CALM      29.66R
NEBRASKA CITY  MOCLDY    61  55  81 W6        29.67R
PLATTSMOUTH    DRIZZLE   64  57  78 S5        29.68R
$$

NEZ044-045-051>053-067-261200-
OMAHA AREA

CITY           SKY/WX    TMP DP  RH WIND       PRES   REMARKS
OMAHA EPPLEY   CLOUDY    64  55  72 CALM      29.67R
BLAIR          CLOUDY    63  56  79 CALM      29.68R
FREMONT        CLOUDY    62  57  83 CALM      29.68R
MILLARD        LGT RAIN  65  59  81 CALM      29.67R
OFFUTT AFB     CLOUDY    63  57  83 W5        29.66R
PLATTSMOUTH    DRIZZLE   64  57  78 S5        29.68R
WAHOO          FAIR      61  58  91 CALM      29.68R
$$



USA.gov is the U.S. government's official web portal to all federal, state and local government web resources and services.